Precipitable_Water
0.69 0.68 0.65 0.62 0.57 0.55 0.52 0.50 0.48 0.45 0.44 0.46 0.45 0.45 0.46 0.46 0.48 0.47 0.46 0.45 0.45 0.46 0.44 0.42 0.40 0.40 0.37 0.34 0.34 0.33 0.33 0.34 0.30 0.31 0.34 0.35 0.36 0.37 0.39 0.42 0.43 0.44 0.44
0.68 0.63 0.58 0.56 0.54 0.48 0.46 0.45 0.43 0.42 0.43 0.43 0.43 0.44 0.46 0.48 0.48 0.46 0.44 0.41 0.39 0.38 0.39 0.39 0.38 0.38 0.36 0.34 0.32 0.30 0.29 0.29 0.28 0.26 0.30 0.32 0.34 0.36 0.36 0.37 0.38 0.40 0.40
0.61 0.55 0.52 0.47 0.42 0.41 0.38 0.37 0.38 0.39 0.38 0.39 0.39 0.39 0.38 0.38 0.36 0.35 0.34 0.35 0.36 0.35 0.34 0.34 0.33 0.32 0.31 0.30 0.31 0.30 0.30 0.30 0.29 0.28 0.27 0.29 0.30 0.31 0.31 0.33 0.34 0.35 0.36
0.53 0.47 0.41 0.37 0.35 0.34 0.34 0.35 0.34 0.33 0.31 0.29 0.28 0.27 0.27 0.26 0.25 0.26 0.26 0.25 0.23 0.25 0.27 0.28 0.28 0.28 0.28 0.28 0.28 0.28 0.28 0.27 0.26 0.25 0.24 0.24 0.24 0.25 0.26 0.26 0.26 0.29 0.29
0.47 0.42 0.37 0.32 0.32 0.31 0.31 0.31 0.30 0.29 0.27 0.25 0.25 0.24 0.24 0.24 0.25 0.25 0.24 0.21 0.21 0.21 0.22 0.23 0.25 0.27 0.27 0.26 0.25 0.24 0.24 0.23 0.23 0.22 0.22 0.22 0.23 0.24 0.24 0.27 0.26 0.28 0.29
0.46 0.39 0.36 0.33 0.33 0.31 0.29 0.27 0.26 0.25 0.24 0.24 0.23 0.24 0.24 0.24 0.26 0.24 0.23 0.22 0.20 0.20 0.20 0.22 0.23 0.24 0.26 0.26 0.26 0.25 0.23 0.20 0.20 0.21 0.20 0.21 0.22 0.24 0.25 0.25 0.26 0.25 0.23
0.42 0.39 0.35 0.34 0.34 0.31 0.30 0.26 0.26 0.25 0.25 0.23 0.24 0.24 0.24 0.25 0.27 0.25 0.24 0.22 0.21 0.20 0.21 0.22 0.23 0.23 0.23 0.23 0.23 0.24 0.25 0.25 0.24 0.22 0.19 0.19 0.20 0.22 0.25 0.25 0.26 0.27 0.26
0.39 0.36 0.35 0.37 0.36 0.32 0.29 0.27 0.26 0.24 0.24 0.24 0.24 0.25 0.25 0.26 0.27 0.26 0.25 0.23 0.22 0.22 0.23 0.23 0.23 0.23 0.23 0.24 0.24 0.24 0.23 0.23 0.24 0.25 0.25 0.24 0.25 0.27 0.28 0.28 0.29 0.29 0.30
0.38 0.39 0.39 0.36 0.37 0.33 0.28 0.27 0.25 0.24 0.25 0.24 0.24 0.25 0.25 0.26 0.26 0.27 0.24 0.22 0.21 0.21 0.22 0.23 0.24 0.23 0.21 0.22 0.22 0.21 0.22 0.23 0.26 0.28 0.28 0.28 0.29 0.30 0.31 0.32 0.29 0.29 0.26
0.35 0.31 0.33 0.35 0.36 0.34 0.29 0.26 0.25 0.24 0.25 0.26 0.26 0.26 0.26 0.25 0.28 0.26 0.24 0.22 0.21 0.22 0.23 0.23 0.23 0.24 0.25 0.24 0.24 0.23 0.22 0.24 0.26 0.28 0.30 0.33 0.36 0.35 0.34 0.32 0.30 0.27 0.27
0.33 0.32 0.35 0.37 0.35 0.32 0.27 0.25 0.24 0.25 0.25 0.27 0.26 0.26 0.26 0.28 0.26 0.26 0.25 0.23 0.24 0.24 0.23 0.23 0.25 0.26 0.26 0.26 0.26 0.24 0.24 0.28 0.27 0.27 0.28 0.29 0.29 0.30 0.31 0.35 0.34 0.32 0.28
0.37 0.35 0.35 0.34 0.32 0.27 0.25 0.24 0.25 0.24 0.25 0.24 0.24 0.23 0.25 0.26 0.27 0.26 0.25 0.25 0.26 0.23 0.23 0.25 0.27 0.25 0.25 0.25 0.26 0.27 0.28 0.27 0.28 0.28 0.28 0.28 0.29 0.29 0.31 0.32 0.34 0.37 0.37
0.38 0.37 0.34 0.31 0.28 0.25 0.23 0.23 0.23 0.23 0.23 0.23 0.21 0.21 0.22 0.24 0.24 0.24 0.24 0.26 0.25 0.25 0.26 0.26 0.27 0.26 0.26 0.27 0.28 0.27 0.28 0.28 0.28 0.26 0.26 0.28 0.30 0.33 0.34 0.35 0.36 0.38 0.37
0.33 0.31 0.30 0.29 0.26 0.23 0.24 0.23 0.23 0.22 0.22 0.21 0.19 0.19 0.21 0.22 0.21 0.23 0.25 0.25 0.26 0.25 0.26 0.26 0.27 0.26 0.27 0.28 0.28 0.29 0.29 0.28 0.26 0.26 0.27 0.29 0.31 0.32 0.32 0.34 0.33 0.33 0.32
0.33 0.30 0.28 0.27 0.24 0.23 0.23 0.24 0.22 0.24 0.23 0.20 0.18 0.20 0.19 0.18 0.20 0.24 0.25 0.24 0.25 0.25 0.25 0.26 0.25 0.24 0.25 0.26 0.26 0.26 0.27 0.26 0.26 0.26 0.27 0.27 0.29 0.30 0.30 0.33 0.30 0.30 0.28
0.29 0.27 0.28 0.25 0.24 0.23 0.23 0.23 0.25 0.25 0.23 0.22 0.21 0.21 0.20 0.21 0.23 0.24 0.25 0.25 0.25 0.26 0.25 0.23 0.23 0.23 0.24 0.25 0.25 0.25 0.25 0.25 0.25 0.26 0.26 0.27 0.27 0.28 0.28 0.31 0.30 0.28 0.27
0.29 0.27 0.24 0.23 0.24 0.23 0.23 0.22 0.21 0.25 0.25 0.23 0.22 0.21 0.20 0.22 0.22 0.23 0.24 0.25 0.26 0.25 0.23 0.23 0.23 0.23 0.23 0.24 0.25 0.25 0.24 0.25 0.26 0.26 0.26 0.26 0.27 0.27 0.27 0.27 0.28 0.29 0.28
0.29 0.25 0.24 0.25 0.25 0.24 0.23 0.23 0.23 0.22 0.21 0.21 0.23 0.21 0.21 0.23 0.22 0.23 0.24 0.25 0.23 0.24 0.23 0.23 0.22 0.19 0.18 0.19 0.21 0.23 0.25 0.25 0.26 0.26 0.25 0.26 0.26 0.26 0.26 0.25 0.26 0.26 0.26
0.24 0.23 0.25 0.26 0.25 0.24 0.24 0.24 0.24 0.23 0.22 0.21 0.21 0.20 0.20 0.22 0.24 0.24 0.23 0.23 0.22 0.22 0.22 0.22 0.20 0.18 0.17 0.17 0.17 0.18 0.20 0.21 0.24 0.25 0.25 0.25 0.26 0.26 0.25 0.25 0.25 0.26 0.26
0.25 0.23 0.24 0.25 0.24 0.24 0.24 0.23 0.23 0.23 0.22 0.21 0.20 0.19 0.17 0.20 0.21 0.21 0.22 0.21 0.20 0.20 0.20 0.20 0.19 0.18 0.18 0.18 0.18 0.18 0.18 0.18 0.18 0.21 0.24 0.25 0.26 0.26 0.26 0.25 0.25 0.24 0.24
0.24 0.24 0.24 0.24 0.25 0.24 0.23 0.23 0.23 0.23 0.22 0.21 0.20 0.21 0.17 0.17 0.19 0.20 0.21 0.21 0.19 0.18 0.18 0.18 0.19 0.19 0.18 0.17 0.16 0.16 0.17 0.17 0.17 0.17 0.18 0.21 0.24 0.24 0.25 0.25 0.25 0.26 0.25
0.22 0.23 0.25 0.25 0.25 0.25 0.24 0.23 0.23 0.23 0.23 0.22 0.21 0.21 0.20 0.19 0.19 0.20 0.21 0.21 0.20 0.19 0.18 0.18 0.18 0.18 0.17 0.17 0.17 0.16 0.15 0.15 0.15 0.15 0.15 0.17 0.19 0.19 0.22 0.22 0.22 0.23 0.23
0.23 0.23 0.24 0.25 0.25 0.24 0.24 0.24 0.24 0.24 0.23 0.23 0.22 0.20 0.20 0.19 0.18 0.19 0.20 0.21 0.22 0.21 0.19 0.18 0.17 0.17 0.17 0.18 0.18 0.17 0.15 0.13 0.14 0.14 0.14 0.15 0.16 0.16 0.17 0.17 0.18 0.17 0.18
0.24 0.24 0.24 0.25 0.25 0.24 0.24 0.24 0.24 0.24 0.23 0.22 0.22 0.21 0.20 0.19 0.19 0.19 0.19 0.21 0.22 0.22 0.20 0.19 0.18 0.17 0.17 0.17 0.17 0.17 0.16 0.15 0.14 0.13 0.15 0.16 0.15 0.15 0.15 0.15 0.16 0.16 0.15
0.24 0.24 0.24 0.24 0.24 0.24 0.24 0.24 0.24 0.23 0.23 0.23 0.22 0.22 0.21 0.20 0.19 0.19 0.19 0.19 0.20 0.21 0.20 0.20 0.20 0.18 0.17 0.17 0.16 0.16 0.15 0.15 0.14 0.14 0.16 0.16 0.15 0.14 0.15 0.15 0.14 0.16 0.15
0.23 0.23 0.24 0.24 0.24 0.24 0.24 0.23 0.23 0.23 0.23 0.23 0.22 0.22 0.22 0.20 0.20 0.20 0.19 0.19 0.19 0.18 0.19 0.18 0.18 0.18 0.18 0.19 0.18 0.17 0.16 0.16 0.15 0.15 0.16 0.15 0.14 0.14 0.13 0.14 0.13 0.14 0.14
Wind_Speed
43 45 48 47 47 48 50 51 52 53 54 52 51 50 49 48 47 45 41 39 37 34 33 32 32 31 32 32 31 31 31 31 32 33 35 36 38 41 42 43 42 44 45
45 46 47 47 48 49 50 51 52 52 52 52 51 50 47 43 40 39 37 35 35 34 34 34 34 33 33 33 33 33 33 34 34 35 34 35 36 37 39 40 41 42 43
45 46 47 47 49 49 50 50 50 50 50 49 47 45 42 39 39 38 37 36 35 36 36 36 36 36 35 33 32 31 31 31 32 33 33 33 34 35 37 38 39 41 44
46 46 47 48 47 48 48 49 50 50 49 46 42 39 37 36 36 36 34 35 37 37 37 36 36 34 33 32 31 30 30 30 31 31 32 32 33 33 35 36 37 39 40
47 47 47 46 47 48 48 49 48 47 44 40 37 36 35 36 35 35 36 38 38 38 38 38 37 36 34 34 34 34 32 32 31 31 31 31 30 30 31 32 34 35 36
47 47 47 46 47 47 48 47 45 42 38 36 36 35 35 35 35 36 38 39 39 39 38 37 37 36 35 33 32 33 33 33 32 32 31 31 31 31 32 32 33 33 34
47 47 47 46 47 46 45 43 40 37 36 35 35 35 36 37 37 38 39 40 39 39 38 36 36 34 34 33 32 32 31 32 33 33 33 33 33 33 33 33 34 34 34
47 48 47 45 46 44 41 39 36 35 35 34 35 36 37 38 38 39 39 38 37 35 34 34 33 33 32 31 30 30 30 30 29 29 30 30 30 30 31 32 33 34 34
47 45 44 46 41 39 37 36 34 34 34 34 35 37 38 39 40 38 37 35 33 32 31 29 29 29 30 29 28 28 27 27 26 27 28 29 30 31 31 31 30 30 30
46 45 43 40 38 35 34 33 32 32 33 35 36 38 38 39 36 35 33 32 31 29 27 26 25 25 25 24 24 24 23 23 23 23 24 23 24 25 27 29 30 31 31
43 41 39 36 34 32 30 29 31 32 33 34 36 37 37 34 33 33 32 30 28 27 24 22 20 17 16 17 18 19 21 21 21 20 20 20 20 21 21 21 22 24 26
39 38 36 32 29 28 27 28 30 31 32 34 35 36 34 32 32 30 29 27 24 22 19 16 13 14 14 15 15 15 16 16 14 13 13 13 13 14 15 17 19 20 22
36 34 31 27 26 25 26 28 29 29 30 33 34 34 32 31 30 27 25 22 21 17 13 13 10 9 9 8 8 10 9 8 8 9 8 8 8 9 10 12 14 16 19
31 28 26 24 23 24 24 26 27 28 29 31 33 32 31 29 26 22 21 19 17 15 12 9 8 6 5 4 3 3 4 4 4 4 4 4 5 6 7 9 11 12 13
26 23 22 21 20 22 24 24 26 26 28 31 30 29 29 27 22 20 18 18 16 14 11 8 6 5 4 4 3 1 1 1 1 1 2 3 4 6 7 8 9 9 10
21 20 19 19 20 21 22 24 24 25 26 28 27 27 27 24 20 17 17 17 15 12 9 7 6 6 6 6 6 5 3 2 1 2 3 4 4 5 7 8 7 8 8
21 20 19 18 19 20 22 24 24 24 26 25 26 26 24 24 18 15 15 14 12 10 8 7 6 6 6 5 5 5 5 5 4 3 4 4 5 6 7 7 7 7 7
20 19 17 17 18 20 22 23 23 24 25 25 25 24 23 23 16 14 13 11 10 9 8 7 6 6 5 5 5 5 5 5 6 5 4 4 5 5 6 6 7 7 8
20 18 17 17 18 20 22 22 22 23 23 23 24 23 23 22 16 12 11 10 9 8 7 7 6 6 5 5 5 5 5 6 6 6 6 5 5 5 6 6 6 7 7
19 17 17 17 18 20 21 21 21 22 22 22 22 23 22 21 17 13 10 9 8 8 7 7 6 6 5 5 5 5 6 6 6 6 6 6 6 5 6 7 7 7 8
19 17 17 17 18 20 20 20 21 22 21 21 21 21 22 19 18 14 12 10 9 8 7 7 6 6 6 6 6 6 6 6 6 6 6 7 7 6 7 7 7 8 8
19 18 17 17 18 19 19 20 20 21 21 21 21 21 20 19 17 15 13 11 11 10 9 8 8 7 7 7 7 7 7 7 7 7 7 7 7 7 7 7 8 8 8
18 17 17 17 18 18 19 19 20 21 21 21 20 20 20 19 18 16 14 13 12 11 11 11 10 10 9 9 9 8 8 8 9 9 8 8 8 8 8 8 8 9 9
17 17 17 17 17 17 18 19 20 21 21 21 20 20 20 19 18 17 15 14 13 12 12 12 12 12 12 11 11 10 10 10 10 10 10 10 9 9 9 9 10 10 10
17 17 16 16 16 16 18 19 20 21 21 21 20 20 20 19 19 18 17 15 14 13 12 12 13 13 13 13 13 12 12 12 12 12 11 11 11 11 11 10 11 11 11
16 16 16 16 16 16 18 19 20 21 22 22 21 20 19 20 20 19 18 16 15 14 14 13 13 13 14 14 14 14 14 14 13 13 13 12 12 12 12 12 12 12 13
Wind_Direction
306 306 307 307 307 308 307 307 308 308 309 308 306 304 302 300 299 298 296 294 292 290 288 286 285 284 282 280 277 273 270 265 265 263 261 258 255 254 254 255 254 253 253
307 307 308 308 309 309 309 309 309 309 309 308 306 304 302 301 300 297 297 295 291 289 287 286 285 284 282 281 277 273 270 267 267 266 264 260 259 257 256 255 254 254 254
309 309 308 308 310 310 310 310 310 310 310 309 308 305 303 300 298 297 295 293 291 289 287 285 284 283 282 279 276 274 272 269 267 265 264 263 261 259 258 257 256 256 256
309 310 310 310 310 311 311 311 312 312 311 311 310 308 306 304 302 299 297 296 294 290 287 285 283 281 280 278 275 274 272 270 268 266 265 264 263 261 259 259 259 258 257
309 310 310 310 311 311 312 313 313 313 313 312 311 309 308 306 304 303 300 298 295 292 288 284 282 279 276 275 274 272 271 270 268 266 265 264 263 261 260 260 259 259 257
309 309 310 310 311 312 313 314 314 314 314 313 312 311 310 309 306 305 303 300 297 293 289 285 281 278 276 274 271 270 268 268 267 266 265 265 265 264 263 262 262 261 260
308 309 309 310 311 312 313 314 315 314 314 314 313 313 312 311 308 307 305 302 298 294 289 285 281 277 275 274 272 270 267 266 265 265 265 264 265 264 263 262 261 260 259
308 308 308 308 310 311 312 313 314 315 315 315 315 314 314 312 312 311 308 305 300 296 291 286 281 277 273 272 270 269 268 267 266 264 264 264 264 263 262 262 262 262 260
309 309 309 309 308 309 311 313 314 315 316 317 317 317 316 314 313 312 312 309 304 300 295 289 284 278 273 272 269 267 267 267 266 265 265 265 265 264 263 263 262 261 259
308 309 310 309 309 308 310 312 314 316 317 318 318 318 318 317 316 316 314 312 308 304 298 292 287 281 274 269 265 263 264 264 267 270 270 268 267 266 264 261 260 259 258
306 310 310 310 309 309 310 312 315 318 319 321 322 322 321 321 319 319 317 316 312 308 302 295 290 285 278 270 264 261 262 267 270 270 271 270 268 267 264 262 260 260 258
306 308 309 309 310 311 312 315 318 320 322 324 325 325 325 325 324 323 322 321 319 315 308 301 294 290 285 276 266 259 261 266 263 266 270 272 274 273 268 266 265 263 261
307 307 307 308 311 312 315 317 320 323 325 327 328 329 329 329 329 329 329 330 330 327 321 315 308 303 296 280 266 262 253 247 260 270 274 277 280 281 280 281 279 273 268
308 307 307 308 312 314 318 320 323 326 328 331 332 332 333 333 333 336 337 340 341 340 337 332 329 326 319 303 270 230 230 246 264 272 280 286 299 303 299 299 294 289 279
312 310 310 309 312 317 321 324 325 327 330 333 335 336 336 336 337 338 342 345 346 348 349 357 7 19 33 52 58 83 171 200 255 300 307 310 319 326 325 323 321 310 297
315 313 312 311 315 319 323 326 329 330 332 335 338 339 340 339 337 340 344 348 353 359 11 24 34 43 50 52 52 56 64 35 337 321 322 325 328 334 339 340 338 344 333
316 314 312 311 316 320 325 328 329 332 333 337 339 341 342 342 338 339 344 349 357 6 18 25 32 35 37 39 41 40 36 23 355 326 319 325 328 333 339 346 351 351 348
315 313 309 313 317 321 326 328 330 333 335 339 340 341 344 344 339 337 342 347 356 4 8 9 12 12 14 16 17 15 11 8 7 359 336 326 332 335 343 346 349 352 353
316 313 310 311 316 321 325 328 329 333 335 337 342 343 344 345 338 334 337 341 346 351 355 356 356 358 359 1 360 359 358 0 0 359 357 342 331 332 340 343 340 342 344
312 311 309 310 315 320 325 327 329 333 334 337 340 344 345 345 344 334 327 328 331 335 341 345 349 349 349 350 352 351 350 352 353 353 354 351 343 333 329 330 334 334 335
311 309 307 309 314 320 323 325 328 331 332 334 338 342 344 343 344 338 325 316 314 314 316 321 328 335 340 341 340 339 340 341 343 345 345 345 344 341 336 333 331 330 327
309 307 306 308 313 318 321 324 326 329 329 330 333 337 340 340 339 337 330 316 303 299 296 297 300 306 314 318 323 325 327 328 327 328 326 327 329 330 330 333 336 336 336
306 306 306 308 312 316 320 323 325 328 328 327 329 331 334 336 335 331 328 321 310 296 289 286 286 289 294 300 305 309 312 314 315 315 314 316 317 319 318 320 323 325 327
306 305 305 307 310 315 319 323 325 327 327 326 326 327 329 330 331 328 323 319 312 305 294 284 281 282 285 288 292 296 300 305 306 306 305 305 308 310 311 313 314 317 318
305 306 305 307 308 313 318 322 325 326 327 326 324 323 325 326 326 324 319 314 309 304 299 292 284 281 280 282 285 289 292 295 298 300 298 298 299 302 303 305 308 309 313
306 305 305 306 308 311 316 321 324 326 327 326 324 322 322 323 323 321 317 310 305 302 297 294 289 286 282 280 282 285 287 290 292 293 294 293 294 296 297 299 303 304 307